{"data":{"norad_id":84236,"intl_designator":"","name":"UNKNOWN","alt_names":[],"object_type":"UNKNOWN","status":"UNKNOWN","operator":null,"country":null,"launch_date":null,"launch_site_code":null,"launch_vehicle":null,"mission":null,"orbit_class":"UNKNOWN","rcs_meters":null,"size_class":null,"mass_kg":null,"dimensions":null,"purposes":[],"wikipedia_slug":null,"has_3d_model":false,"image_url":null,"decayed_at":null,"tle_current":{"epoch":"2026-09-19T11:05:29.035104Z","epoch_age_seconds":107966,"freshness":"FRESH","line1":"1 84236U          26262.46214161  .00000916  00000+0  53842-2 0  9995","line2":"2 84236   9.0307 206.1959 6903294 346.4903   1.7183  2.63056644121367","mean_motion":2.63056644,"eccentricity":0.6903294,"inclination_deg":9.0307,"raan_deg":206.1959,"arg_perigee_deg":346.4903,"mean_anomaly_deg":1.7183,"bstar":0.0053842,"rev_number":12136,"period_min":547.41061776794,"perigee_km":486.25853404235,"apogee_km":31090.99821794,"semimajor_km":22166.765375991,"source":"CELESTRAK","updated_at":"2026-09-20T09:00:32.442712Z"}}}